Time,TemperatureF,DewpointF,PressureIn,WindDirection,WindDirectionDegrees,WindSpeedMPH,WindSpeedGustMPH,Humidity,HourlyPrecipIn,Conditions,Clouds,dailyrainin,SoftwareType,DateUTC
2013-01-01 00:01:00,40.3,28.3,29.87,West,278,4.0,6.0,62,0.00,,,0.00,WUHU21623XXSP,2013-01-01 05:01:00,
2013-01-01 00:04:00,40.3,27.9,29.87,West,278,6.7,6.7,61,0.00,,,0.00,WUHU21623XXSP,2013-01-01 05:04:00,
2013-01-01 00:05:00,40.3,28.3,29.87,WNW,287,5.7,6.7,62,0.00,,,0.00,WUHU21623XXSP,2013-01-01 05:05:00,
2013-01-01 00:11:00,40.3,28.3,29.86,SSW,211,2.5,6.9,62,0.00,,,0.00,WUHU21623XXSP,2013-01-01 05:11:00,
2013-01-01 00:17:00,40.3,27.9,29.86,WSW,256,0.9,3.8,61,0.00,,,0.00,WUHU21623XXSP,2013-01-01 05:17:00,
2013-01-01 00:24:00,40.3,28.3,29.86,West,278,2.5,8.3,62,0.00,,,0.00,WUHU21623XXSP,2013-01-01 05:24:00,
2013-01-01 00:30:00,40.3,28.3,29.86,WNW,301,4.5,5.8,62,0.00,,,0.00,WUHU21623XXSP,2013-01-01 05:30:00,
2013-01-01 00:35:00,40.3,28.3,29.86,West,278,6.5,6.5,62,0.00,,,0.00,WUHU21623XXSP,2013-01-01 05:35:00,
2013-01-01 00:41:00,40.5,28.3,29.85,West,278,2.7,6.5,62,0.00,,,0.00,WUHU21623XXSP,2013-01-01 05:41:00,
2013-01-01 00:48:00,40.5,28.4,29.85,SW,233,3.6,3.6,62,0.00,,,0.00,WUHU21623XXSP,2013-01-01 05:48:00,
2013-01-01 00:54:00,40.6,28.6,29.85,WSW,256,1.8,3.6,62,0.00,,,0.00,WUHU21623XXSP,2013-01-01 05:54:00,
2013-01-01 01:01:00,40.6,28.6,29.85,West,278,1.8,3.8,62,0.00,,,0.00,WUHU21623XXSP,2013-01-01 06:01:00,
2013-01-01 01:07:00,40.6,28.6,29.85,SW,233,5.1,10.3,62,0.00,,,0.00,WUHU21623XXSP,2013-01-01 06:07:00,
2013-01-01 01:13:00,40.8,28.8,29.86,West,278,3.5,10.3,62,0.00,,,0.00,WUHU21623XXSP,2013-01-01 06:13:00,
2013-01-01 01:20:00,40.8,28.8,29.86,West,278,6.5,6.5,61,0.00,,,0.00,WUHU21623XXSP,2013-01-01 06:20:00,
2013-01-01 01:26:00,40.6,28.2,29.86,West,279,4.2,6.5,61,0.00,,,0.00,WUHU21623XXSP,2013-01-01 06:26:00,
2013-01-01 01:33:00,40.6,28.2,29.86,NW,323,3.6,4.3,61,0.00,,,0.00,WUHU21623XXSP,2013-01-01 06:33:00,
2013-01-01 01:39:00,40.8,28.4,29.86,West,278,2.2,5.1,61,0.00,,,0.00,WUHU21623XXSP,2013-01-01 06:39:00,
2013-01-01 01:46:00,40.6,28.6,29.86,WNW,301,5.8,6.5,62,0.00,,,0.00,WUHU21623XXSP,2013-01-01 06:46:00,
2013-01-01 01:52:00,40.6,28.6,29.86,West,278,7.4,7.4,62,0.00,,,0.00,WUHU21623XXSP,2013-01-01 06:52:00,
2013-01-01 01:59:00,40.6,28.6,29.85,WNW,301,4.7,7.4,62,0.00,,,0.00,WUHU21623XXSP,2013-01-01 06:59:00,
2013-01-01 02:04:00,40.6,28.6,29.85,West,278,3.4,7.4,62,0.00,,,0.00,WUHU21623XXSP,2013-01-01 07:04:00,
2013-01-01 02:09:00,40.6,28.6,29.85,West,278,1.6,6.7,62,0.00,,,0.00,WUHU21623XXSP,2013-01-01 07:09:00,
2013-01-01 02:16:00,40.6,28.6,29.85,WNW,301,2.5,2.5,62,0.00,,,0.00,WUHU21623XXSP,2013-01-01 07:16:00,
2013-01-01 02:22:00,40.6,28.6,29.85,WNW,301,11.9,11.9,62,0.00,,,0.00,WUHU21623XXSP,2013-01-01 07:22:00,
2013-01-01 02:28:00,40.6,28.6,29.85,WSW,256,1.6,12.1,62,0.00,,,0.00,WUHU21623XXSP,2013-01-01 07:28:00,
2013-01-01 02:35:00,40.6,28.6,29.85,West,278,5.4,12.1,62,0.00,,,0.00,WUHU21623XXSP,2013-01-01 07:35:00,
2013-01-01 02:41:00,40.5,28.4,29.85,West,278,4.9,5.4,62,0.00,,,0.00,WUHU21623XXSP,2013-01-01 07:41:00,
2013-01-01 02:48:00,40.3,28.6,29.85,WSW,256,4.7,5.6,63,0.00,,,0.00,WUHU21623XXSP,2013-01-01 07:48:00,
2013-01-01 02:54:00,40.3,28.6,29.85,SW,233,5.1,5.6,63,0.00,,,0.00,WUHU21623XXSP,2013-01-01 07:54:00,
2013-01-01 03:01:00,40.3,28.6,29.85,WNW,301,14.3,14.3,63,0.00,,,0.00,WUHU21623XXSP,2013-01-01 08:01:00,
2013-01-01 03:07:00,40.3,28.6,29.85,WSW,256,2.9,14.3,63,0.00,,,0.00,WUHU21623XXSP,2013-01-01 08:07:00,
2013-01-01 03:14:00,40.3,29.0,29.86,WNW,301,4.9,7.6,64,0.00,,,0.00,WUHU21623XXSP,2013-01-01 08:14:00,
2013-01-01 03:20:00,40.5,29.2,29.86,WNW,301,11.6,11.6,64,0.00,,,0.00,WUHU21623XXSP,2013-01-01 08:20:00,
2013-01-01 03:27:00,40.5,29.2,29.86,West,278,6.9,11.6,64,0.00,,,0.00,WUHU21623XXSP,2013-01-01 08:27:00,
2013-01-01 03:33:00,40.6,29.4,29.86,West,278,6.9,6.9,64,0.00,,,0.00,WUHU21623XXSP,2013-01-01 08:33:00,
2013-01-01 03:40:00,40.6,29.4,29.86,WNW,301,7.2,7.2,64,0.00,,,0.00,WUHU21623XXSP,2013-01-01 08:40:00,
2013-01-01 03:46:00,40.8,29.6,29.86,WSW,256,8.9,8.9,64,0.00,,,0.00,WUHU21623XXSP,2013-01-01 08:46:00,
2013-01-01 03:53:00,40.8,29.6,29.86,West,278,3.6,8.9,64,0.00,,,0.00,WUHU21623XXSP,2013-01-01 08:53:00,
2013-01-01 03:59:00,40.8,29.6,29.86,WNW,301,2.9,5.1,64,0.00,,,0.00,WUHU21623XXSP,2013-01-01 08:59:00,
2013-01-01 04:05:00,40.8,29.6,29.86,NNW,346,5.6,5.6,64,0.00,,,0.00,WUHU21623XXSP,2013-01-01 09:05:00,
2013-01-01 04:12:00,40.8,29.6,29.86,WSW,256,0.9,5.6,64,0.00,,,0.00,WUHU21623XXSP,2013-01-01 09:12:00,
2013-01-01 04:18:00,40.8,29.6,29.86,West,278,3.4,5.4,64,0.00,,,0.00,WUHU21623XXSP,2013-01-01 09:18:00,
2013-01-01 04:24:00,41.0,29.7,29.86,WNW,301,6.9,6.9,64,0.00,,,0.00,WUHU21623XXSP,2013-01-01 09:24:00,
2013-01-01 04:31:00,41.0,29.7,29.86,SSW,211,11.4,11.4,64,0.00,,,0.00,WUHU21623XXSP,2013-01-01 09:31:00,
2013-01-01 04:37:00,41.2,30.3,29.86,West,278,5.4,11.4,65,0.00,,,0.00,WUHU21623XXSP,2013-01-01 09:37:00,
2013-01-01 04:44:00,41.2,30.3,29.86,NW,323,2.5,11.0,65,0.00,,,0.00,WUHU21623XXSP,2013-01-01 09:44:00,
2013-01-01 04:50:00,41.0,30.1,29.86,SW,233,3.1,6.5,65,0.00,,,0.00,WUHU21623XXSP,2013-01-01 09:50:00,
2013-01-01 04:56:00,41.2,30.3,29.86,SW,233,3.1,3.1,65,0.00,,,0.00,WUHU21623XXSP,2013-01-01 09:56:00,
2013-01-01 05:04:00,41.2,30.3,29.86,WSW,256,7.4,7.4,65,0.00,,,0.00,WUHU21623XXSP,2013-01-01 10:04:00,
2013-01-01 05:10:00,41.2,30.3,29.85,WSW,256,3.8,7.4,65,0.00,,,0.00,WUHU21623XXSP,2013-01-01 10:10:00,
2013-01-01 05:16:00,41.2,29.9,29.86,SW,233,1.6,7.4,64,0.00,,,0.00,WUHU21623XXSP,2013-01-01 10:16:00,
2013-01-01 05:23:00,41.2,30.3,29.85,WSW,256,4.0,6.7,65,0.00,,,0.00,WUHU21623XXSP,2013-01-01 10:23:00,
2013-01-01 05:29:00,41.2,30.3,29.84,WSW,256,3.8,4.0,65,0.00,,,0.00,WUHU21623XXSP,2013-01-01 10:29:00,
2013-01-01 05:35:00,41.2,29.9,29.84,West,278,3.6,3.8,64,0.00,,,0.00,WUHU21623XXSP,2013-01-01 10:35:00,
2013-01-01 05:41:00,41.2,29.9,29.84,West,278,3.1,3.8,64,0.00,,,0.00,WUHU21623XXSP,2013-01-01 10:41:00,
2013-01-01 05:48:00,41.2,29.9,29.84,WSW,256,4.5,5.6,64,0.00,,,0.00,WUHU21623XXSP,2013-01-01 10:48:00,
2013-01-01 05:55:00,41.2,29.9,29.84,WSW,256,3.6,4.9,64,0.00,,,0.00,WUHU21623XXSP,2013-01-01 10:55:00,
2013-01-01 06:01:00,41.2,29.9,29.84,West,278,5.4,5.4,64,0.00,,,0.00,WUHU21623XXSP,2013-01-01 11:01:00,
2013-01-01 06:07:00,41.2,29.9,29.84,WNW,301,8.1,8.1,64,0.00,,,0.00,WUHU21623XXSP,2013-01-01 11:07:00,
2013-01-01 06:14:00,40.8,29.6,29.84,NW,323,4.9,8.1,64,0.00,,,0.00,WUHU21623XXSP,2013-01-01 11:14:00,
2013-01-01 06:20:00,40.8,29.6,29.85,WNW,301,0.7,4.9,64,0.00,,,0.00,WUHU21623XXSP,2013-01-01 11:20:00,
2013-01-01 06:27:00,40.8,29.6,29.85,West,278,3.4,4.9,64,0.00,,,0.00,WUHU21623XXSP,2013-01-01 11:27:00,
2013-01-01 06:33:00,40.8,29.6,29.85,WNW,301,5.4,7.4,64,0.00,,,0.00,WUHU21623XXSP,2013-01-01 11:33:00,
2013-01-01 06:39:00,40.8,29.6,29.86,West,278,4.0,7.4,64,0.00,,,0.00,WUHU21623XXSP,2013-01-01 11:39:00,
2013-01-01 06:46:00,40.8,29.6,29.86,WSW,256,6.9,6.9,64,0.00,,,0.00,WUHU21623XXSP,2013-01-01 11:46:00,
2013-01-01 06:52:00,40.6,29.6,29.86,West,278,3.8,6.9,64,0.00,,,0.00,WUHU21623XXSP,2013-01-01 11:52:00,
2013-01-01 06:59:00,40.6,29.4,29.86,NW,323,2.2,6.9,64,0.00,,,0.00,WUHU21623XXSP,2013-01-01 11:59:00,
2013-01-01 07:05:00,40.6,29.4,29.86,West,278,4.7,4.7,64,0.00,,,0.00,WUHU21623XXSP,2013-01-01 12:05:00,
2013-01-01 07:12:00,40.6,29.4,29.86,West,278,0.9,4.7,64,0.00,,,0.00,WUHU21623XXSP,2013-01-01 12:12:00,
2013-01-01 07:18:00,40.6,29.4,29.86,West,278,2.0,6.0,64,0.00,,,0.00,WUHU21623XXSP,2013-01-01 12:18:00,
2013-01-01 07:24:00,40.6,29.2,29.86,WSW,256,2.7,6.0,64,0.00,,,0.00,WUHU21623XXSP,2013-01-01 12:24:00,
2013-01-01 07:31:00,40.5,29.2,29.86,West,278,4.9,9.2,64,0.00,,,0.00,WUHU21623XXSP,2013-01-01 12:31:00,
2013-01-01 07:37:00,40.3,29.0,29.86,WSW,256,4.5,4.9,64,0.00,,,0.00,WUHU21623XXSP,2013-01-01 12:37:00,
2013-01-01 07:44:00,40.5,29.6,29.86,West,278,6.3,7.6,65,0.00,,,0.00,WUHU21623XXSP,2013-01-01 12:44:00,
2013-01-01 07:50:00,40.5,29.4,29.86,West,278,2.0,6.7,65,0.00,,,0.00,WUHU21623XXSP,2013-01-01 12:50:00,
2013-01-01 07:57:00,40.5,29.6,29.86,WSW,256,3.1,3.1,65,0.00,,,0.00,WUHU21623XXSP,2013-01-01 12:57:00,
2013-01-01 08:03:00,40.5,29.6,29.85,WNW,301,5.1,7.8,65,0.00,,,0.00,WUHU21623XXSP,2013-01-01 13:03:00,
2013-01-01 08:09:00,40.5,29.6,29.85,West,278,4.0,11.4,65,0.00,,,0.00,WUHU21623XXSP,2013-01-01 13:09:00,
2013-01-01 08:16:00,40.3,29.6,29.86,WSW,256,7.6,7.6,65,0.00,,,0.00,WUHU21623XXSP,2013-01-01 13:16:00,
2013-01-01 08:22:00,40.5,29.6,29.86,WSW,256,2.7,7.6,65,0.00,,,0.00,WUHU21623XXSP,2013-01-01 13:22:00,
2013-01-01 08:29:00,40.5,29.6,29.86,WSW,256,4.9,5.1,65,0.00,,,0.00,WUHU21623XXSP,2013-01-01 13:29:00,
2013-01-01 08:35:00,40.5,29.6,29.86,West,278,6.9,6.9,65,0.00,,,0.00,WUHU21623XXSP,2013-01-01 13:35:00,
2013-01-01 08:42:00,40.6,29.8,29.85,West,263,9.0,9.8,65,0.00,,,0.00,WUHU21623XXSP,2013-01-01 13:42:00,
2013-01-01 08:48:00,40.6,29.8,29.85,WNW,301,4.9,9.8,65,0.00,,,0.00,WUHU21623XXSP,2013-01-01 13:48:00,
2013-01-01 08:54:00,40.6,29.8,29.86,NNW,346,1.6,5.8,65,0.00,,,0.00,WUHU21623XXSP,2013-01-01 13:54:00,
2013-01-01 09:01:00,40.6,29.9,29.86,WNW,301,4.0,4.0,65,0.00,,,0.00,WUHU21623XXSP,2013-01-01 14:01:00,
2013-01-01 09:07:00,40.8,29.9,29.85,West,278,7.2,7.4,65,0.00,,,0.00,WUHU21623XXSP,2013-01-01 14:07:00,
2013-01-01 09:14:00,40.8,29.9,29.86,West,278,3.8,7.4,65,0.00,,,0.00,WUHU21623XXSP,2013-01-01 14:14:00,
2013-01-01 09:20:00,41.0,30.1,29.87,WNW,301,4.5,5.1,65,0.00,,,0.00,WUHU21623XXSP,2013-01-01 14:20:00,
2013-01-01 09:27:00,41.2,30.3,29.86,WSW,256,6.0,6.0,65,0.00,,,0.00,WUHU21623XXSP,2013-01-01 14:27:00,
2013-01-01 09:33:00,41.2,30.1,29.87,WNW,301,6.7,6.7,65,0.00,,,0.00,WUHU21623XXSP,2013-01-01 14:33:00,
2013-01-01 09:39:00,41.2,30.3,29.86,SW,233,4.7,6.7,65,0.00,,,0.00,WUHU21623XXSP,2013-01-01 14:39:00,
2013-01-01 09:46:00,41.2,29.9,29.86,NNW,346,4.7,4.7,64,0.00,,,0.00,WUHU21623XXSP,2013-01-01 14:46:00,
2013-01-01 09:52:00,41.2,29.9,29.87,WSW,256,6.3,9.6,64,0.00,,,0.00,WUHU21623XXSP,2013-01-01 14:52:00,
2013-01-01 09:59:00,41.2,29.9,29.87,West,278,2.2,6.3,64,0.00,,,0.00,WUHU21623XXSP,2013-01-01 14:59:00,
2013-01-01 10:05:00,41.4,29.9,29.87,NW,323,8.7,13.0,64,0.00,,,0.00,WUHU21623XXSP,2013-01-01 15:05:00,
2013-01-01 10:12:00,41.5,30.2,29.87,WSW,256,10.7,10.7,64,0.00,,,0.00,WUHU21623XXSP,2013-01-01 15:12:00,
2013-01-01 10:18:00,41.5,30.2,29.87,NW,323,4.5,10.7,64,0.00,,,0.00,WUHU21623XXSP,2013-01-01 15:18:00,
2013-01-01 10:24:00,41.5,30.2,29.86,WSW,256,3.6,9.4,64,0.00,,,0.00,WUHU21623XXSP,2013-01-01 15:24:00,
2013-01-01 10:31:00,41.5,30.2,29.86,WSW,256,2.9,5.1,64,0.00,,,0.00,WUHU21623XXSP,2013-01-01 15:31:00,
2013-01-01 10:37:00,41.7,30.4,29.87,NW,323,6.9,10.7,64,0.00,,,0.00,WUHU21623XXSP,2013-01-01 15:37:00,
2013-01-01 10:44:00,41.7,30.4,29.86,WNW,301,2.9,10.1,64,0.00,,,0.00,WUHU21623XXSP,2013-01-01 15:44:00,
2013-01-01 10:50:00,41.7,30.4,29.86,WSW,256,7.2,10.1,64,0.00,,,0.00,WUHU21623XXSP,2013-01-01 15:50:00,
2013-01-01 10:57:00,41.9,30.6,29.85,NW,323,4.5,10.1,64,0.00,,,0.00,WUHU21623XXSP,2013-01-01 15:57:00,
2013-01-01 11:03:00,41.9,30.6,29.85,NW,323,6.3,7.6,64,0.00,,,0.00,WUHU21623XXSP,2013-01-01 16:03:00,
2013-01-01 11:10:00,41.7,30.0,29.85,WNW,301,7.2,7.2,63,0.00,,,0.00,WUHU21623XXSP,2013-01-01 16:10:00,
2013-01-01 11:16:00,41.9,30.2,29.85,West,278,2.7,7.4,63,0.00,,,0.00,WUHU21623XXSP,2013-01-01 16:16:00,
2013-01-01 11:22:00,41.9,30.2,29.85,West,278,4.3,10.7,63,0.00,,,0.00,WUHU21623XXSP,2013-01-01 16:22:00,
2013-01-01 11:29:00,41.7,30.0,29.85,West,278,6.7,10.7,63,0.00,,,0.00,WUHU21623XXSP,2013-01-01 16:29:00,
2013-01-01 11:35:00,41.9,30.2,29.84,WNW,301,3.8,6.7,63,0.00,,,0.00,WUHU21623XXSP,2013-01-01 16:35:00,
2013-01-01 11:42:00,41.9,30.2,29.84,West,278,12.1,12.1,63,0.00,,,0.00,WUHU21623XXSP,2013-01-01 16:42:00,
2013-01-01 11:48:00,41.9,30.2,29.83,NNW,346,8.5,12.1,63,0.00,,,0.00,WUHU21623XXSP,2013-01-01 16:48:00,
2013-01-01 11:55:00,41.7,30.0,29.83,NE,53,2.5,11.0,63,0.00,,,0.00,WUHU21623XXSP,2013-01-01 16:55:00,
2013-01-01 12:01:00,41.9,30.2,29.82,WSW,256,3.6,11.0,63,0.00,,,0.00,WUHU21623XXSP,2013-01-01 17:01:00,
2013-01-01 12:07:00,41.7,30.0,29.83,West,278,8.3,8.9,63,0.00,,,0.00,WUHU21623XXSP,2013-01-01 17:07:00,
2013-01-01 12:14:00,41.7,30.0,29.83,West,278,10.5,10.5,63,0.00,,,0.00,WUHU21623XXSP,2013-01-01 17:14:00,
2013-01-01 12:21:00,41.7,30.0,29.83,WNW,301,8.1,10.5,63,0.00,,,0.00,WUHU21623XXSP,2013-01-01 17:21:00,
2013-01-01 12:27:00,41.7,30.0,29.81,West,266,4.0,8.1,63,0.00,,,0.00,WUHU21623XXSP,2013-01-01 17:27:00,
2013-01-01 12:33:00,41.7,30.0,29.82,WNW,301,4.7,5.8,63,0.00,,,0.00,WUHU21623XXSP,2013-01-01 17:33:00,
2013-01-01 12:40:00,41.7,30.0,29.82,WNW,301,8.5,8.5,63,0.00,,,0.00,WUHU21623XXSP,2013-01-01 17:40:00,
2013-01-01 12:46:00,41.5,29.8,29.83,NNW,346,6.7,8.5,63,0.00,,,0.00,WUHU21623XXSP,2013-01-01 17:46:00,
2013-01-01 12:53:00,41.5,30.2,29.82,NNW,346,4.3,8.3,64,0.00,,,0.00,WUHU21623XXSP,2013-01-01 17:53:00,
2013-01-01 12:59:00,41.4,30.1,29.82,North,8,4.5,8.3,64,0.00,,,0.00,WUHU21623XXSP,2013-01-01 17:59:00,
2013-01-01 13:05:00,41.2,30.5,29.82,NNW,346,5.1,5.1,65,0.00,,,0.00,WUHU21623XXSP,2013-01-01 18:05:00,
2013-01-01 13:12:00,41.0,30.1,29.83,NNW,346,8.7,8.7,65,0.00,,,0.00,WUHU21623XXSP,2013-01-01 18:12:00,
2013-01-01 13:18:00,40.8,29.9,29.82,NNW,346,6.7,8.7,65,0.00,,,0.00,WUHU21623XXSP,2013-01-01 18:18:00,
2013-01-01 13:25:00,40.8,29.9,29.82,North,8,3.6,6.7,65,0.00,,,0.00,WUHU21623XXSP,2013-01-01 18:25:00,
2013-01-01 13:31:00,40.8,29.9,29.82,NNW,346,8.3,8.3,65,0.00,,,0.00,WUHU21623XXSP,2013-01-01 18:31:00,
2013-01-01 13:38:00,40.5,29.2,29.82,NW,323,4.5,8.3,64,0.00,,,0.00,WUHU21623XXSP,2013-01-01 18:38:00,
2013-01-01 13:44:00,40.3,29.0,29.81,NNW,346,6.5,6.5,64,0.00,,,0.00,WUHU21623XXSP,2013-01-01 18:44:00,
2013-01-01 13:51:00,40.3,29.0,29.82,NNW,346,3.8,6.5,64,0.00,,,0.00,WUHU21623XXSP,2013-01-01 18:51:00,
2013-01-01 13:57:00,40.1,28.8,29.79,NNW,346,6.7,6.7,64,0.00,,,0.00,WUHU21623XXSP,2013-01-01 18:57:00,
2013-01-01 14:03:00,40.3,29.0,29.80,NW,323,2.5,6.7,64,0.00,,,0.00,WUHU21623XXSP,2013-01-01 19:03:00,
2013-01-01 14:10:00,40.3,29.0,29.81,WNW,301,6.7,6.7,64,0.00,,,0.00,WUHU21623XXSP,2013-01-01 19:10:00,
2013-01-01 14:16:00,40.5,29.2,29.81,NNW,346,4.3,6.7,64,0.00,,,0.00,WUHU21623XXSP,2013-01-01 19:16:00,
2013-01-01 14:23:00,40.5,29.0,29.81,NNW,346,4.3,5.1,64,0.00,,,0.00,WUHU21623XXSP,2013-01-01 19:23:00,
2013-01-01 14:29:00,40.6,29.0,29.81,North,8,4.0,4.7,63,0.00,,,0.00,WUHU21623XXSP,2013-01-01 19:29:00,
2013-01-01 14:36:00,40.6,29.0,29.81,WNW,301,2.0,4.0,63,0.00,,,0.00,WUHU21623XXSP,2013-01-01 19:36:00,
2013-01-01 14:42:00,40.8,29.2,29.82,NW,323,4.9,6.5,63,0.00,,,0.00,WUHU21623XXSP,2013-01-01 19:42:00,
2013-01-01 14:49:00,40.6,29.0,29.82,NW,323,4.3,6.5,63,0.00,,,0.00,WUHU21623XXSP,2013-01-01 19:49:00,
2013-01-01 14:55:00,40.6,29.0,29.81,WNW,301,2.2,4.3,63,0.00,,,0.00,WUHU21623XXSP,2013-01-01 19:55:00,
2013-01-01 15:01:00,40.6,29.0,29.81,WNW,301,2.2,2.2,63,0.00,,,0.00,WUHU21623XXSP,2013-01-01 20:01:00,
2013-01-01 15:08:00,40.8,28.8,29.81,WNW,301,4.3,4.3,62,0.00,,,0.00,WUHU21623XXSP,2013-01-01 20:08:00,
2013-01-01 15:14:00,40.8,29.2,29.82,NW,323,7.2,7.2,63,0.00,,,0.00,WUHU21623XXSP,2013-01-01 20:14:00,
2013-01-01 15:21:00,40.8,29.2,29.81,NNW,346,5.4,7.2,63,0.00,,,0.00,WUHU21623XXSP,2013-01-01 20:21:00,
2013-01-01 15:27:00,40.8,28.8,29.81,NW,323,4.0,5.4,62,0.00,,,0.00,WUHU21623XXSP,2013-01-01 20:27:00,
2013-01-01 15:34:00,40.8,28.8,29.82,WNW,301,5.1,5.1,62,0.00,,,0.00,WUHU21623XXSP,2013-01-01 20:34:00,
2013-01-01 15:40:00,40.8,28.8,29.82,NW,323,4.7,5.1,62,0.00,,,0.00,WUHU21623XXSP,2013-01-01 20:40:00,
2013-01-01 15:47:00,40.8,28.8,29.84,North,8,2.7,4.7,62,0.00,,,0.00,WUHU21623XXSP,2013-01-01 20:47:00,
2013-01-01 15:53:00,40.8,28.4,29.84,NW,323,2.8,5.6,61,0.00,,,0.00,WUHU21623XXSP,2013-01-01 20:53:00,
2013-01-01 15:59:00,40.6,28.2,29.84,WNW,301,3.1,3.6,61,0.00,,,0.00,WUHU21623XXSP,2013-01-01 20:59:00,
2013-01-01 16:06:00,40.8,28.4,29.84,West,278,5.8,5.8,61,0.00,,,0.00,WUHU21623XXSP,2013-01-01 21:06:00,
2013-01-01 16:12:00,40.6,27.9,29.84,WNW,301,2.7,10.5,60,0.00,,,0.00,WUHU21623XXSP,2013-01-01 21:12:00,
2013-01-01 16:19:00,40.5,27.7,29.85,NW,325,4.4,10.5,60,0.00,,,0.00,WUHU21623XXSP,2013-01-01 21:19:00,
2013-01-01 16:25:00,40.5,27.7,29.85,WNW,301,5.6,6.0,60,0.00,,,0.00,WUHU21623XXSP,2013-01-01 21:25:00,
2013-01-01 16:32:00,40.3,27.5,29.85,West,278,3.6,5.8,60,0.00,,,0.00,WUHU21623XXSP,2013-01-01 21:32:00,
2013-01-01 16:38:00,40.3,27.1,29.85,NNW,346,2.7,5.8,59,0.00,,,0.00,WUHU21623XXSP,2013-01-01 21:38:00,
2013-01-01 16:45:00,40.1,26.9,29.85,NNW,346,7.6,10.1,59,0.00,,,0.00,WUHU21623XXSP,2013-01-01 21:45:00,
2013-01-01 16:51:00,39.9,26.3,29.84,NNW,346,3.4,10.1,58,0.00,,,0.00,WUHU21623XXSP,2013-01-01 21:51:00,
2013-01-01 16:57:00,39.9,26.3,29.84,NNW,346,6.7,7.6,58,0.00,,,0.00,WUHU21623XXSP,2013-01-01 21:57:00,
2013-01-01 17:04:00,39.9,26.3,29.86,NNW,346,4.7,6.7,58,0.00,,,0.00,WUHU21623XXSP,2013-01-01 22:04:00,
2013-01-01 17:10:00,39.7,25.6,29.86,NW,323,4.7,4.7,57,0.00,,,0.00,WUHU21623XXSP,2013-01-01 22:10:00,
2013-01-01 17:17:00,39.6,25.5,29.86,NNW,346,6.9,6.9,57,0.00,,,0.00,WUHU21623XXSP,2013-01-01 22:17:00,
2013-01-01 17:23:00,39.4,25.3,29.87,North,8,7.4,7.4,57,0.00,,,0.00,WUHU21623XXSP,2013-01-01 22:23:00,
2013-01-01 17:29:00,39.4,25.3,29.87,NW,311,4.0,7.4,57,0.00,,,0.00,WUHU21623XXSP,2013-01-01 22:29:00,
2013-01-01 17:36:00,39.0,25.4,29.87,NNW,346,6.0,6.0,58,0.00,,,0.00,WUHU21623XXSP,2013-01-01 22:36:00,
2013-01-01 17:42:00,39.0,25.4,29.88,North,8,3.6,6.0,57,0.00,,,0.00,WUHU21623XXSP,2013-01-01 22:42:00,
2013-01-01 17:49:00,38.8,25.0,29.88,North,8,6.9,6.9,57,0.00,,,0.00,WUHU21623XXSP,2013-01-01 22:49:00,
2013-01-01 17:55:00,38.8,24.8,29.88,NW,323,5.4,6.9,57,0.00,,,0.00,WUHU21623XXSP,2013-01-01 22:55:00,
2013-01-01 18:02:00,38.5,24.0,29.87,NNW,346,7.8,7.8,56,0.00,,,0.00,WUHU21623XXSP,2013-01-01 23:02:00,
2013-01-01 18:08:00,38.5,24.0,29.88,North,8,2.5,10.5,56,0.00,,,0.00,WUHU21623XXSP,2013-01-01 23:08:00,
2013-01-01 18:14:00,38.3,23.9,29.87,NW,323,4.5,10.5,56,0.00,,,0.00,WUHU21623XXSP,2013-01-01 23:14:00,
2013-01-01 18:21:00,38.1,23.3,29.88,NNW,346,2.5,6.9,55,0.00,,,0.00,WUHU21623XXSP,2013-01-01 23:21:00,
2013-01-01 18:27:00,38.1,23.3,29.89,NW,323,0.9,2.9,55,0.00,,,0.00,WUHU21623XXSP,2013-01-01 23:27:00,
2013-01-01 18:34:00,38.1,23.3,29.89,NNW,346,5.4,6.7,55,0.00,,,0.00,WUHU21623XXSP,2013-01-01 23:34:00,
2013-01-01 18:40:00,37.9,23.1,29.90,NW,323,4.9,8.1,55,0.00,,,0.00,WUHU21623XXSP,2013-01-01 23:40:00,
2013-01-01 18:47:00,37.8,22.5,29.91,NNW,346,12.9,17.4,54,0.00,,,0.00,WUHU21623XXSP,2013-01-01 23:47:00,
2013-01-01 18:53:00,37.4,22.2,29.91,NW,323,2.7,17.4,54,0.00,,,0.00,WUHU21623XXSP,2013-01-01 23:53:00,
2013-01-01 19:00:00,37.2,22.0,29.90,NNW,346,2.5,9.4,54,0.00,,,0.00,WUHU21623XXSP,2013-01-02 00:00:00,
2013-01-01 19:06:00,37.2,22.5,29.92,North,8,3.6,5.8,55,0.00,,,0.00,WUHU21623XXSP,2013-01-02 00:06:00,
2013-01-01 19:12:00,37.2,22.0,29.92,NNW,346,10.7,10.7,54,0.00,,,0.00,WUHU21623XXSP,2013-01-02 00:12:00,
2013-01-01 19:19:00,37.0,21.9,29.92,NNW,346,7.4,10.7,54,0.00,,,0.00,WUHU21623XXSP,2013-01-02 00:19:00,
2013-01-01 19:26:00,36.7,21.6,29.92,NNW,346,5.1,7.4,54,0.00,,,0.00,WUHU21623XXSP,2013-01-02 00:26:00,
2013-01-01 19:32:00,36.7,21.6,29.93,North,8,8.9,8.9,54,0.00,,,0.00,WUHU21623XXSP,2013-01-02 00:32:00,
2013-01-01 19:38:00,36.5,21.4,29.92,NNW,346,5.6,8.9,54,0.00,,,0.00,WUHU21623XXSP,2013-01-02 00:38:00,
2013-01-01 19:45:00,36.3,21.2,29.92,NNW,346,6.9,6.9,54,0.00,,,0.00,WUHU21623XXSP,2013-01-02 00:45:00,
2013-01-01 19:51:00,36.1,20.6,29.92,NW,323,5.8,6.9,53,0.00,,,0.00,WUHU21623XXSP,2013-01-02 00:51:00,
2013-01-01 19:58:00,35.8,20.5,29.92,NNW,346,7.6,7.6,53,0.00,,,0.00,WUHU21623XXSP,2013-01-02 00:58:00,
2013-01-01 20:04:00,35.8,20.8,29.92,NNW,346,5.8,7.6,54,0.00,,,0.00,WUHU21623XXSP,2013-01-02 01:04:00,
2013-01-01 20:11:00,35.8,20.8,29.92,NNW,346,4.9,5.8,54,0.00,,,0.00,WUHU21623XXSP,2013-01-02 01:11:00,
2013-01-01 20:17:00,35.8,20.8,29.93,NNW,346,8.1,8.1,54,0.00,,,0.00,WUHU21623XXSP,2013-01-02 01:17:00,
2013-01-01 20:23:00,35.4,20.4,29.93,NW,323,6.9,8.1,54,0.00,,,0.00,WUHU21623XXSP,2013-01-02 01:23:00,
2013-01-01 20:30:00,35.4,20.4,29.94,NW,323,5.4,7.6,54,0.00,,,0.00,WUHU21623XXSP,2013-01-02 01:30:00,
2013-01-01 20:36:00,35.4,20.4,29.94,NW,323,7.8,7.8,54,0.00,,,0.00,WUHU21623XXSP,2013-01-02 01:36:00,
2013-01-01 20:43:00,35.2,20.4,29.93,NNW,346,9.2,10.7,54,0.00,,,0.00,WUHU21623XXSP,2013-01-02 01:43:00,
2013-01-01 20:49:00,35.2,20.2,29.94,NNW,346,4.0,10.7,54,0.00,,,0.00,WUHU21623XXSP,2013-01-02 01:49:00,
2013-01-01 20:56:00,34.9,19.9,29.94,NNW,346,6.9,6.9,54,0.00,,,0.00,WUHU21623XXSP,2013-01-02 01:56:00,
2013-01-01 21:02:00,34.9,19.9,29.93,NNW,346,2.2,6.9,54,0.00,,,0.00,WUHU21623XXSP,2013-01-02 02:02:00,
2013-01-01 21:08:00,34.9,19.9,29.94,NW,323,5.4,8.3,54,0.00,,,0.00,WUHU21623XXSP,2013-01-02 02:08:00,
2013-01-01 21:15:00,34.9,20.3,29.93,North,8,4.3,5.4,55,0.00,,,0.00,WUHU21623XXSP,2013-01-02 02:15:00,
2013-01-01 21:20:00,34.9,20.3,29.94,NNW,346,2.7,4.3,55,0.00,,,0.00,WUHU21623XXSP,2013-01-02 02:20:00,
2013-01-01 21:26:00,34.9,20.3,29.95,WNW,301,2.7,4.9,55,0.00,,,0.00,WUHU21623XXSP,2013-01-02 02:26:00,
2013-01-01 21:32:00,34.9,20.3,29.95,WNW,301,5.4,8.3,55,0.00,,,0.00,WUHU21623XXSP,2013-01-02 02:32:00,
2013-01-01 21:39:00,34.7,19.7,29.95,NNW,346,3.6,6.9,54,0.00,,,0.00,WUHU21623XXSP,2013-01-02 02:39:00,
2013-01-01 21:45:00,34.5,19.5,29.95,WNW,301,13.4,13.4,54,0.00,,,0.00,WUHU21623XXSP,2013-01-02 02:45:00,
2013-01-01 21:52:00,34.3,19.3,29.95,NW,323,4.5,13.4,54,0.00,,,0.00,WUHU21623XXSP,2013-01-02 02:52:00,
2013-01-01 21:58:00,34.3,19.3,29.96,NW,323,8.3,8.3,54,0.00,,,0.00,WUHU21623XXSP,2013-01-02 02:58:00,
2013-01-01 22:04:00,34.2,18.7,29.96,NNW,346,4.0,15.4,53,0.00,,,0.00,WUHU21623XXSP,2013-01-02 03:04:00,
2013-01-01 22:11:00,34.0,18.5,29.96,NNW,346,4.7,15.4,53,0.00,,,0.00,WUHU21623XXSP,2013-01-02 03:11:00,
2013-01-01 22:17:00,33.6,18.6,29.96,NNW,346,9.6,9.6,54,0.00,,,0.00,WUHU21623XXSP,2013-01-02 03:17:00,
2013-01-01 22:24:00,33.6,18.6,29.96,NNW,340,6.7,9.6,54,0.00,,,0.00,WUHU21623XXSP,2013-01-02 03:24:00,
2013-01-01 22:30:00,33.4,18.5,29.97,NW,323,10.3,10.3,54,0.00,,,0.00,WUHU21623XXSP,2013-01-02 03:30:00,
2013-01-01 22:37:00,33.1,17.7,29.97,NNW,346,11.6,11.6,53,0.00,,,0.00,WUHU21623XXSP,2013-01-02 03:37:00,
2013-01-01 22:43:00,32.9,18.0,29.97,NNW,346,5.4,11.6,54,0.00,,,0.00,WUHU21623XXSP,2013-01-02 03:43:00,
2013-01-01 22:50:00,32.7,17.4,29.97,NW,323,12.1,12.1,53,0.00,,,0.00,WUHU21623XXSP,2013-01-02 03:50:00,
2013-01-01 22:56:00,32.7,17.4,29.97,NNW,346,8.9,12.1,53,0.00,,,0.00,WUHU21623XXSP,2013-01-02 03:56:00,
2013-01-01 23:01:00,32.7,17.4,29.97,NNW,346,8.9,12.1,53,0.00,,,0.00,WUHU21623XXSP,2013-01-02 04:01:00,
2013-01-01 23:07:00,32.5,17.2,29.97,WNW,302,5.4,8.9,53,0.00,,,0.00,WUHU21623XXSP,2013-01-02 04:07:00,
2013-01-01 23:13:00,32.5,17.2,29.98,North,8,7.6,7.6,53,0.00,,,0.00,WUHU21623XXSP,2013-01-02 04:13:00,
2013-01-01 23:20:00,32.4,17.2,29.98,North,8,12.3,12.3,53,0.00,,,0.00,WUHU21623XXSP,2013-01-02 04:20:00,
2013-01-01 23:25:00,32.4,17.1,29.98,NNW,346,1.6,12.3,53,0.00,,,0.00,WUHU21623XXSP,2013-01-02 04:25:00,
2013-01-01 23:30:00,32.4,17.1,29.98,NW,316,5.3,6.9,53,0.00,,,0.00,WUHU21623XXSP,2013-01-02 04:30:00,
2013-01-01 23:37:00,32.2,16.9,29.98,NNW,346,3.6,6.9,53,0.00,,,0.00,WUHU21623XXSP,2013-01-02 04:37:00,
2013-01-01 23:43:00,32.2,16.9,29.98,NW,323,5.4,5.4,53,0.00,,,0.00,WUHU21623XXSP,2013-01-02 04:43:00,
2013-01-01 23:50:00,32.2,16.9,29.98,North,8,2.9,5.4,53,0.00,,,0.00,WUHU21623XXSP,2013-01-02 04:50:00,
2013-01-01 23:56:00,32.2,16.9,29.97,North,8,4.9,5.8,53,0.00,,,0.00,WUHU21623XXSP,2013-01-02 04:56:00,